星链-31096 (STARLINK-31096 )

导读

STARLINK-31096是美国SpaceX星链星座的卫星,于2023年12月19日发射入轨,隶属于星链低轨互联网星座的扩容组网任务。星链星座旨在为全球提供低延迟高速互联网服务,该卫星承担星座通信组网环节,运行在近地轨道,延续了星链星座规模化部署、全球覆盖的建设目标。

基本信息
目录编号:
58592
目录名称:
STARLINK-31096
国际标识:
2023-200D
轨道中心:
EARTH
卫星名称:
星链-31096
卫星全名:
星链-31096 (STARLINK-31096 )
卫星状态:
在轨 (已飞行912 天)
发射日期:
2023-12-19 UTC
国别 :
美国 (US)
星等 :
--
轨道信息
数据来源 国际轨道数据
星历时间: 2026-06-17T11:51:11+0800
1天前
查看轨道信息
半长轴: 6840.001km
偏心率: 0.0015132
轨道倾角: 43.004°
近地点辐角 307.282°
升交点赤经 326.208°
平近点角 52.666°
近地点: 451.513km
远地点: 472.215km
周期: 93.830分钟
每日圈数: 15.346825
详细信息
固有亮度:
5
最大亮度:
0.3
卫星平台:
Starlink v2.0 mini
覆盖范围:
全球
运营商:
太空探索技术公司
运营商所在国:
美国
制造商(研发单位):
太空探索技术公司
制造商所在国:
美国
使用方式:
暂无
卫星简介
星链(Starlink)计划是由太空探索技术公司(SpaceX)提出的一个巨型低轨卫星互联网星座项目,计划在2019年至2024年间在太空搭建由约1.2万颗卫星组成的“星链”网络,其中1584颗将部署在地球上空550千米处的近地轨道,并从2020年开始工作。该卫星仍在工作。
2D轨道图
3D轨道图
轨道高度分析图
轨道倾角分析图
轨道综合分析图
查看轨道综合分析图